View from above orbital plane
|
View from above satellite
|
Ground track
|
The orbit data is extracted from the following two-line orbital elements,
1 26474U 00047B 21055.37312095 .00000263 00000-0 33498-4 0 9999
2 26474 67.9930 102.2070 0061080 279.6257 79.7988 14.96088793116926
Epoch (UTC): | 24 February 2021 08:57:17 |
Eccentricity: | 0.0061080 |
inclination: | 67.9930° |
perigee height: | 536 km |
apogee height: | 621 km |
right ascension of ascending node: | 102.2070° |
argument of perigee: | 279.6257° |
revolutions per day: | 14.96088793 |
mean anomaly at epoch: | 79.7988° |
orbit number at epoch: | 11692 |
The dashed part of the orbit path shows where the satellite is in the earth's shadow,
|
|